Luxor, Egypt

12:11 PM EET on February 25, 2017 (GMT +0200)
Luxor International

Weather History for HELX - May, 2013

Change the Weather History Date:

Friday, May 24, 2013

  Actual Average Record
Temperature  
Mean Temperature 94 °F -  
Max Temperature 112 °F 101 °F 112 °F (2013)
Min Temperature 77 °F 73 °F 68 °F (2004)
Cooling Degree Days 30    
Growing Degree Days 44 (Base 50)    
Moisture  
Dew Point 51 °F    
Average Humidity 22    
Maximum Humidity 28    
Minimum Humidity 10    
Precipitation  
Precipitation 0.00 in 0.00 in - ()
Sea Level Pressure  
Sea Level Pressure 29.76 in    
Wind  
Wind Speed 1 mph ()    
Max Wind Speed 6 mph    
Max Gust Speed -    
Visibility 6.0 miles    
Events      
Averages and records for this station are not official NWS values.
T = Trace of Precipitation, MM = Missing Value Source: Averaged Metar Reports

Daily Weather History Graph

Daily Weather History Graph

Search for Another Location

Airport or City:

Trip Planner

Search our weather history database for the weather conditions in past years. The results will help you decide how hot, cold, wet, or windy it might be!

Date:

Astronomy

May. 24, 2013 Rise Set
Actual Time 4:59 AM EET 6:32 PM EET
Civil Twilight 4:34 AM EET 6:57 PM EET
Nautical Twilight 4:04 AM EET 7:28 PM EET
Astronomical Twilight 3:32 AM EET 7:59 PM EET
Moon 5:54 PM EET (5/24) 4:08 AM EET (5/24)
Length of Visible Light 14h 23m
Length of Day
13h 32m
Waxing Gibbous, 99% of the Moon is Illuminated
May 24
Waxing Gibbous
May 25
Full
May 31
Last Quarter
Jun 8
New
Jun 16
First Quarter

Hourly Weather History & Observations

Time (EET) Temp. Heat Index Dew Point Humidity Pressure Visibility Wind Dir Wind Speed Gust Speed Precip Events Conditions
12:00 AM 86.0 °F - 44.6 °F 23% 29.77 in - Calm Calm - N/A   Clear
1:00 AM 82.4 °F - 42.8 °F 25% 29.77 in - Calm Calm - N/A   Clear
2:00 AM 81 °F - 43 °F 16% 29.75 in 6 mi Calm Calm - -  
2:00 AM 80.6 °F - 42.8 °F 26% 29.77 in - Calm Calm - N/A   Clear
3:00 AM 78.8 °F - 41.0 °F 26% 29.77 in - Calm Calm - N/A   Clear
4:00 AM 78.8 °F - 42.8 °F 28% 29.74 in - Calm Calm - N/A   Clear
5:00 AM 78.8 °F - 39.2 °F 24% 29.77 in - Calm Calm - N/A   Clear
6:00 AM 77.0 °F - 41.0 °F 28% 29.80 in - Calm Calm - N/A   Clear
7:00 AM 80.6 °F - 42.8 °F 26% 29.83 in - Calm Calm - N/A   Clear
8:00 AM 86.0 °F - 48.2 °F 27% 29.83 in - Calm Calm - N/A   Clear
9:00 AM 93.2 °F 91.3 °F 55.4 °F 28% 29.83 in - Calm Calm - N/A   Clear
10:00 AM 98.6 °F 97.6 °F 57.2 °F 25% 29.83 in - North 2.3 mph - N/A   Clear
11:00 AM 102.2 °F 103.6 °F 60.8 °F 26% 29.80 in - North 2.3 mph - N/A   Clear
12:00 PM 105.8 °F 105.5 °F 57.2 °F 20% 29.80 in - NNW 4.6 mph - N/A   Clear
1:00 PM 109.4 °F 109.4 °F 57.2 °F 18% 29.77 in - NNW 4.6 mph - N/A   Clear
2:00 PM 110 °F - 55 °F 10% 29.73 in 6 mi North 2.3 mph - -  
2:00 PM 109.4 °F 108.6 °F 55.4 °F 17% 29.74 in - North 2.3 mph - N/A   Clear
3:00 PM 111.2 °F 110.4 °F 55.4 °F 16% 29.74 in - North 5.8 mph - N/A   Clear
4:00 PM 109.4 °F 109.4 °F 57.2 °F 18% 29.71 in - North 5.8 mph - N/A   Clear
5:00 PM 107.6 °F 107.5 °F 57.2 °F 19% 29.71 in - NNE 5.8 mph - N/A   Clear
6:00 PM 105.8 °F 104.9 °F 55.4 °F 19% 29.71 in - North 4.6 mph - N/A   Clear
7:00 PM 98.6 °F 97.6 °F 57.2 °F 25% 29.71 in - Calm Calm - N/A   Clear
8:00 PM 95 °F - 57 °F 19% 29.70 in 6 mi West 2.3 mph - -  
8:00 PM 95.0 °F 93.7 °F 57.2 °F 28% 29.71 in - West 2.3 mph - N/A   Clear
9:00 PM 95.0 °F 93.0 °F 55.4 °F 26% 29.71 in - SW 2.3 mph - N/A   Clear
10:00 PM 93.2 °F - 48.2 °F 21% 29.74 in - South 1.2 mph - N/A   Clear
11:00 PM 91.4 °F - 42.8 °F 18% 29.74 in - SSE 2.3 mph - N/A   Clear